Weather History for MYNN - April, 2013

Change the Weather History Date:

Wednesday, April 24, 2013

  Actual Average Record
Temperature  
Mean Temperature 78 °F -  
Max Temperature 84 °F 84 °F 122 °F (1998)
Min Temperature 72 °F 69 °F 68 °F (2005)
Cooling Degree Days 13    
Growing Degree Days 28 (Base 50)    
Moisture  
Dew Point 64 °F    
Average Humidity 64    
Maximum Humidity 83    
Minimum Humidity 43    
Precipitation  
Precipitation 0.00 in 0.14 in - ()
Sea Level Pressure  
Sea Level Pressure 30.08 in    
Wind  
Wind Speed 9 mph ()    
Max Wind Speed 81 mph    
Max Gust Speed -    
Visibility 6.6 miles    
Events      
Averages and records for this station are not official NWS values.
T = Trace of Precipitation, MM = Missing Value Source: Averaged Metar Reports

Daily Weather History Graph

Daily Weather History Graph

Search for Another Location

Airport or City:

Trip Planner

Search our weather history database for the weather conditions in past years. The results will help you decide how hot, cold, wet, or windy it might be!

Date:

Astronomy

Apr. 24, 2013 Rise Set
Actual Time 6:39 AM EDT 7:36 PM EDT
Civil Twilight 6:15 AM EDT 8:00 PM EDT
Nautical Twilight 5:47 AM EDT 8:28 PM EDT
Astronomical Twilight 5:19 AM EDT 8:57 PM EDT
Moon 6:41 PM EDT (4/24) 5:34 AM EDT (4/24)
Length of Visible Light 13h 44m
Length of Day
12h 57m
Waxing Gibbous, 98% of the Moon is Illuminated
Apr 24
Waxing Gibbous
Apr 25
Full
May 2
Last Quarter
May 9
New
May 18
First Quarter

Hourly Weather History & Observations

Time (EDT) Temp. Heat Index Dew Point Humidity Pressure Visibility Wind Dir Wind Speed Gust Speed Precip Events Conditions
12:00 AM 75.2 °F - 68.0 °F 78% 30.05 in 6.2 mi ENE 5.8 mph - N/A   Scattered Clouds
1:00 AM 73.4 °F - 66.2 °F 78% 30.05 in 6.2 mi NE 8.1 mph - N/A   Scattered Clouds
2:00 AM 74 °F - 67 °F 73% 30.04 in 9 mi NE 5.8 mph - -   Partly Cloudy
2:00 AM 73.4 °F - 68.0 °F 83% 30.04 in 6.2 mi NE 5.8 mph - N/A   Scattered Clouds
3:00 AM 73.4 °F - 66.2 °F 78% 30.03 in 6.2 mi ENE 5.8 mph - N/A   Partly Cloudy
4:00 AM 73.4 °F - 64.4 °F 73% 30.03 in 6.2 mi ENE 8.1 mph - N/A   Partly Cloudy
5:00 AM 73 °F - 65 °F 68% 30.03 in 9 mi NE 8.1 mph - -   Scattered Clouds
5:00 AM 73.4 °F - 64.4 °F 73% 30.02 in 6.2 mi NE 8.1 mph - N/A   Partly Cloudy
6:00 AM 73.4 °F - 64.4 °F 73% 30.03 in 6.2 mi North 6.9 mph - N/A   Partly Cloudy
7:00 AM 73.4 °F - 62.6 °F 69% 30.05 in 6.2 mi NE 5.8 mph - N/A   Partly Cloudy
8:00 AM 75 °F - 63 °F 58% 30.07 in 9 mi ENE 4.6 mph - -   Scattered Clouds
8:00 AM 75.2 °F - 62.6 °F 65% 30.07 in 6.2 mi ENE 4.6 mph - N/A   Partly Cloudy
9:00 AM 77.0 °F - 62.6 °F 61% 30.11 in 6.2 mi NE 9.2 mph - N/A   Partly Cloudy
10:00 AM 78.8 °F - 62.6 °F 57% 30.12 in 6.2 mi ENE 11.5 mph - N/A   Partly Cloudy
11:00 AM 79 °F - 64 °F 51% 30.13 in 9 mi ENE 16.1 mph - -   Partly Cloudy
11:00 AM 78.8 °F - 64.4 °F 61% 30.13 in 6.2 mi ENE 16.1 mph - N/A   Partly Cloudy
12:00 PM 80.6 °F 81.8 °F 62.6 °F 54% 30.12 in 6.2 mi East 13.8 mph - N/A   Partly Cloudy
1:00 PM 78.8 °F - 64.4 °F 61% 30.11 in 6.2 mi NE 10.4 mph - N/A   Partly Cloudy
2:00 PM 82 °F - 63 °F 43% 30.10 in 9 mi East 11.5 mph - -   Partly Cloudy
2:00 PM 82.4 °F 83.4 °F 62.6 °F 51% 30.10 in 6.2 mi East 11.5 mph - N/A   Partly Cloudy
3:00 PM 80.6 °F 82.3 °F 64.4 °F 58% - 6.2 mi NNE 11.5 mph - N/A   Partly Cloudy
4:00 PM 78.8 °F - 64.4 °F 61% - 6.2 mi NNE 11.5 mph - N/A   Mostly Cloudy
5:00 PM - - 66 °F % 30.06 in 1 mi NNE 80.6 mph - -   Partly Cloudy
5:00 PM 80.6 °F 82.7 °F 66.2 °F 61% - 6.2 mi NE 11.5 mph - N/A   Scattered Clouds
6:00 PM 78.8 °F - 64.4 °F 61% - 6.2 mi NNE 11.5 mph - N/A   Partly Cloudy
7:00 PM 77.0 °F - 62.6 °F 61% - 6.2 mi NE 6.9 mph - N/A   Partly Cloudy
8:00 PM 76 °F - 62 °F 53% 30.10 in 9 mi NNE 4.6 mph - -   Scattered Clouds
8:00 PM 77.0 °F - 62.6 °F 61% - 6.2 mi NNE 4.6 mph - N/A   Partly Cloudy
9:00 PM 75.2 °F - 62.6 °F 65% - 6.2 mi NNE 4.6 mph - N/A   Partly Cloudy
10:00 PM 75.2 °F - 64.4 °F 69% - 6.2 mi NNE 4.6 mph - N/A   Partly Cloudy
11:00 PM 76 °F - 66 °F 63% 30.12 in 9 mi NE 6.9 mph - -   Partly Cloudy
11:00 PM 75.2 °F - 66.2 °F 73% 30.12 in 6.2 mi NE 6.9 mph - N/A   Scattered Clouds